250032488,2013-07-10T12:53:34.896,-1691.85, 7556936,  60.92,  71.42, 2574464, 2575019, 2573758, 2574632, 2574767,     333,    0.40,   1.736,    3.67,   25.76,    0.13
250032489,2013-07-10T12:53:38.896,-1687.85, 7535561,  61.57,  70.84, 2574608, 2574600, 2574208, 2574483, 2574653,     250,    0.34,   0.859,    5.95,   24.79,    0.18
250032490,2013-07-10T12:53:42.896,-1683.85, 7514635,  62.03,  70.46, 2574643, 2574584, 2574453, 2574565, 2574670,     113,    1.04,   0.253,    9.52,   30.61,    0.10
250032491,2013-07-10T12:53:46.896,-1679.85, 7493770,  62.26,  70.26, 2574615, 2574465, 2574408, 2574509, 2574646,     116,   -0.11,   0.096,    5.27,   19.46,    0.47
250032492,2013-07-10T12:53:50.896,-1675.85, 7472904,  62.29,  70.26, 2574676, 2574512, 2574395, 2574498, 2574705,     116,    0.41,   0.159,    9.66,   29.37,    0.14
250032493,2013-07-10T12:53:54.896,-1671.85, 7452188,  62.28,  70.31, 2574652, 2574555, 2574406, 2574508, 2574681,     128,    0.58,   0.151,    9.30,   27.87,    0.18
250032494,2013-07-10T12:53:58.896,-1667.85, 7431203,  62.25,  70.38, 2574655, 2574579, 2574447, 2574546, 2574685,     120,    0.31,   0.112,    9.22,   24.77,    0.12
250032495,2013-07-10T12:54:02.897,-1663.84, 7410457,  62.22,  70.46, 2574653, 2574554, 2574437, 2574535, 2574684,     116,    0.63,   0.068,    7.27,   28.27,    0.01
250032496,2013-07-10T12:54:06.897,-1659.84, 7389922,  62.20,  70.53, 2574652, 2574540, 2574426, 2574523, 2574685,     139,    0.31,   0.030,    5.97,   21.99,    0.49
250032497,2013-07-10T12:54:10.897,-1655.84, 7369026,  62.17,  70.61, 2574620, 2574453, 2574397, 2574494, 2574652,     123,    0.47,   0.024,    5.44,   23.95,    0.54
250032498,2013-07-10T12:54:14.897,-1651.84, 7348101,  62.15,  70.69, 2574654, 2574598, 2574462, 2574559, 2574685,     133,    0.91,   0.066,    8.77,   30.73,    0.02
250032499,2013-07-10T12:54:18.897,-1647.84, 7327355,  62.14,  70.77, 2574648, 2574515, 2574403, 2574501, 2574677,     133,    0.56,   0.105,    7.83,   28.45,    0.09
250032500,2013-07-10T12:54:22.897,-1643.84, 7306549,  62.10,  70.81, 2574655, 2574566, 2574442, 2574540, 2574684,     136,    1.27,   0.119,    9.09,   32.16,    0.18
250032501,2013-07-10T12:54:26.898,-1639.84, 7285894,  62.07,  70.86, 2574665, 2574552, 2574397, 2574495, 2574694,     142,    0.34,   0.133,    8.72,   27.79,    0.11
250032502,2013-07-10T12:54:30.898,-1635.84, 7265028,  62.12,  70.90, 2574639, 2574582, 2574472, 2574569, 2574668,     113,    1.50,   0.112,   10.48,   32.96,    0.18
250032503,2013-07-10T12:54:34.898,-1631.84, 7244372,  62.16,  70.93, 2574626, 2574505, 2574433, 2574529, 2574655,     103,    1.14,   0.093,    9.51,   32.00,    0.07
250032504,2013-07-10T12:54:38.898,-1627.84, 7223537,  62.20,  70.97, 2574626, 2574578, 2574464, 2574559, 2574656,     111,    1.74,   0.077,    9.31,   32.06,    0.13
250032505,2013-07-10T12:54:42.898,-1623.84, 7202851,  62.26,  71.02, 2574602, 2574528, 2574424, 2574518, 2574633,     102,    1.72,   0.057,   10.18,   32.18,    0.10
250032506,2013-07-10T12:54:46.898,-1619.84, 7182165,  62.30,  71.06, 2574554, 2574514, 2574439, 2574532, 2574585,      62,    1.15,   0.043,   10.32,   28.06,    0.14
250032507,2013-07-10T12:54:50.899,-1615.84, 7161540,  62.34,  71.09, 2574576, 2574493, 2574403, 2574495, 2574607,     107,    0.75,   0.033,    6.08,   23.27,    0.21
250032508,2013-07-10T12:54:54.899,-1611.84, 7140674,  62.37,  71.14, 2574570, 2574530, 2574423, 2574515, 2574601,      80,    0.98,   0.026,    9.08,   29.92,    0.05
250032509,2013-07-10T12:54:58.899,-1607.84, 7119928,  62.42,  71.19, 2574556, 2574556, 2574469, 2574562, 2574587,      76,    1.56,   0.013,    8.68,   25.93,    0.11
250032510,2013-07-10T12:55:02.899,-1603.84, 7099243,  62.43,  71.23, 2574554, 2574503, 2574430, 2574522, 2574585,      69,    0.87,   0.018,    9.74,   22.93,    0.04
250032511,2013-07-10T12:55:06.899,-1599.84, 7078587,  62.47,  71.28, 2574544, 2574527, 2574435, 2574526, 2574575,      85,    1.51,   0.022,    8.93,   26.34,    0.10
250032512,2013-07-10T12:55:10.899,-1595.84, 7057811,  62.51,  71.32, 2574548, 2574549, 2574431, 2574522, 2574578,      95,    1.58,   0.029,    8.49,   31.59,    0.05
250032513,2013-07-10T12:55:14.900,-1591.84, 7037156,  62.54,  71.37, 2574538, 2574522, 2574455, 2574545, 2574568,      59,    2.40,   0.029,   12.98,   34.73,    0.21
250032514,2013-07-10T12:55:18.900,-1587.84, 7016500,  62.56,  71.42, 2574532, 2574518, 2574440, 2574530, 2574562,      49,    1.26,   0.030,   12.70,   29.96,    0.19
250032515,2013-07-10T12:55:22.900,-1583.84, 6995814,  62.57,  71.47, 2574539, 2574504, 2574436, 2574526, 2574569,      63,    1.59,   0.032,    9.40,   28.24,    0.16
250032516,2013-07-10T12:55:26.900,-1579.84, 6975159,  62.59,  71.53, 2574545, 2574495, 2574413, 2574502, 2574575,      73,    0.66,   0.025,    8.20,   23.02,    0.01
250032517,2013-07-10T12:55:30.900,-1575.84, 6954473,  62.62,  71.58, 2574565, 2574491, 2574423, 2574512, 2574595,      59,    1.53,   0.028,   10.47,   32.37,    0.19
250032518,2013-07-10T12:55:34.900,-1571.84, 6933877,  62.64,  71.64, 2574509, 2574487, 2574413, 2574502, 2574539,      55,    0.44,   0.018,    9.13,   20.63,    0.05
250032519,2013-07-10T12:55:38.901,-1567.84, 6913192,  62.66,  71.70, 2574539, 2574493, 2574417, 2574505, 2574569,      61,    0.02,   0.015,    5.48,   18.67,    2.21
250032520,2013-07-10T12:55:42.901,-1563.84, 6892536,  62.68,  71.76, 2574496, 2574476, 2574411, 2574499, 2574527,      46,    0.68,   0.003,   10.04,   21.69,    0.15
250032521,2013-07-10T12:55:46.901,-1559.84, 6871910,  62.69,  71.81, 2574542, 2574465, 2574409, 2574497, 2574572,      64,   -0.10,   0.004,    7.86,   20.45,    0.00
250032522,2013-07-10T12:55:50.901,-1555.84, 6851284,  62.71,  71.88, 2574535, 2574501, 2574436, 2574523, 2574565,      57,    0.39,   0.015,    8.53,   20.30,    0.02
250032523,2013-07-10T12:55:54.901,-1551.84, 6830629,  62.71,  71.93, 2574535, 2574481, 2574408, 2574495, 2574564,      62,    0.53,   0.022,   10.38,   25.54,    0.07
250032524,2013-07-10T12:55:58.901,-1547.84, 6810003,  62.73,  72.00, 2574541, 2574504, 2574403, 2574490, 2574570,      84,    0.76,   0.035,    9.79,   30.60,    0.02
250032525,2013-07-10T12:56:02.902,-1543.84, 6789347,  62.75,  72.06, 2574527, 2574487, 2574392, 2574478, 2574555,      83,    0.83,   0.051,    8.73,   28.12,    0.01
250032526,2013-07-10T12:56:06.902,-1539.84, 6768782,  62.75,  72.12, 2574524, 2574502, 2574418, 2574504, 2574552,      69,    1.94,   0.067,   10.45,   35.65,    0.22
250032527,2013-07-10T12:56:10.902,-1535.84, 6748186,  62.76,  72.18, 2574528, 2574491, 2574398, 2574483, 2574555,      71,    1.23,   0.075,   10.04,   33.52,    0.12
250032528,2013-07-10T12:56:14.902,-1531.84, 6727590,  62.78,  72.25, 2574531, 2574494, 2574411, 2574497, 2574558,      70,    1.56,   0.093,   10.31,   33.09,    0.16
250032529,2013-07-10T12:56:18.902,-1527.84, 6707024,  62.79,  72.30, 2574527, 2574470, 2574396, 2574481, 2574554,      69,    1.50,   0.086,    8.78,   32.25,    0.16
250032530,2013-07-10T12:56:22.902,-1523.84, 6686399,  62.77,  72.32, 2574529, 2574505, 2574385, 2574469, 2574557,      92,    0.88,   0.062,    7.27,   30.09,    0.09
250032531,2013-07-10T12:56:26.903,-1519.84, 6665923,  62.79,  72.34, 2574521, 2574509, 2574404, 2574488, 2574548,      86,    1.38,   0.060,    9.57,   33.24,    0.01
250032532,2013-07-10T12:56:30.903,-1515.84, 6645267,  62.85,  72.38, 2574537, 2574531, 2574431, 2574515, 2574564,      91,    2.15,   0.067,    9.37,   34.06,    0.14
250032533,2013-07-10T12:56:34.903,-1511.84, 6624701,  62.90,  72.41, 2574546, 2574521, 2574400, 2574484, 2574573,      99,    1.26,   0.085,    8.14,   32.60,    0.00
250032534,2013-07-10T12:56:38.903,-1507.84, 6604196,  62.98,  72.44, 2574525, 2574480, 2574392, 2574476, 2574550,      93,    1.85,   0.110,    7.77,   32.01,    0.11
250032535,2013-07-10T12:56:42.903,-1503.84, 6583630,  63.09,  72.50, 2574525, 2574485, 2574394, 2574477, 2574551,      78,    1.34,   0.112,    8.69,   31.84,    0.12
250032536,2013-07-10T12:56:46.903,-1499.84, 6563184,  63.23,  72.57, 2574526, 2574462, 2574378, 2574462, 2574552,      86,    0.85,   0.112,    5.33,   27.40,    0.03
250032537,2013-07-10T12:56:50.904,-1495.84, 6542558,  63.27,  72.65, 2574529, 2574498, 2574403, 2574485, 2574555,      78,    1.50,   0.098,    8.59,   32.62,    0.09
250032538,2013-07-10T12:56:54.904,-1491.84, 6522022,  63.26,  72.74, 2574530, 2574500, 2574419, 2574501, 2574556,      68,    1.10,   0.064,    7.82,   31.13,    0.06
250032539,2013-07-10T12:56:58.904,-1487.84, 6501517,  63.24,  72.84, 2574553, 2574535, 2574452, 2574533, 2574579,      60,    2.08,   0.062,   11.52,   36.01,    0.18
250032540,2013-07-10T12:57:02.904,-1483.84, 6481011,  63.23,  72.91, 2574568, 2574523, 2574428, 2574509, 2574594,      75,    1.61,   0.077,    7.34,   31.70,    0.10
250032541,2013-07-10T12:57:06.904,-1479.84, 6460505,  63.21,  72.98, 2574539, 2574533, 2574446, 2574526, 2574564,      67,    1.89,   0.083,   10.24,   35.25,    0.16
250032542,2013-07-10T12:57:10.904,-1475.84, 6439999,  63.17,  73.03, 2574569, 2574547, 2574456, 2574536, 2574595,      76,    2.16,   0.077,   10.44,   36.00,    0.17
250032543,2013-07-10T12:57:14.905,-1471.84, 6419553,  63.14,  73.08, 2574558, 2574460, 2574419, 2574498, 2574584,      63,    0.05,   0.075,    9.85,   26.72,    0.05
250032544,2013-07-10T12:57:18.905,-1467.84, 6399107,  63.10,  73.15, 2574589, 2574483, 2574420, 2574500, 2574614,      96,    0.82,   0.102,    6.66,   29.56,    0.11
250032545,2013-07-10T12:57:22.905,-1463.84, 6378572,  63.11,  73.22, 2574613, 2574566, 2574475, 2574555, 2574638,      81,    1.53,   0.121,    9.90,   32.91,    0.12
250032546,2013-07-10T12:57:26.905,-1459.84, 6358126,  63.15,  73.28, 2574615, 2574533, 2574455, 2574534, 2574640,      93,    0.71,   0.118,    7.10,   29.20,    0.06
250032547,2013-07-10T12:57:30.905,-1455.84, 6337770,  63.22,  73.35, 2574647, 2574462, 2574408, 2574488, 2574672,      83,   -0.02,   0.114,    7.08,   26.35,    0.07
250032548,2013-07-10T12:57:34.905,-1451.84, 6317204,  63.27,  73.40, 2574703, 2574549, 2574461, 2574539, 2574727,      90,    0.94,   0.103,    8.81,   31.07,    0.03
250032549,2013-07-10T12:57:38.906,-1447.84, 6296758,  63.34,  73.45, 2574695, 2574529, 2574443, 2574521, 2574720,      93,    0.61,   0.092,    6.99,   29.08,    0.02
250032550,2013-07-10T12:57:42.906,-1443.84, 6276432,  63.38,  73.50, 2574707, 2574515, 2574459, 2574536, 2574732,      87,    0.08,   0.073,    7.73,   25.68,    0.13
250032551,2013-07-10T12:57:46.906,-1439.84, 6255867,  63.41,  73.55, 2574726, 2574578, 2574480, 2574556, 2574751,      87,    0.68,   0.060,    8.35,   30.76,    0.00
250032552,2013-07-10T12:57:50.906,-1435.84, 6235511,  63.46,  73.61, 2574702, 2574538, 2574486, 2574562, 2574727,      60,   -0.54,   0.059,   10.03,   27.31,    0.12
250032553,2013-07-10T12:57:54.906,-1431.84, 6215035,  63.51,  73.68, 2574730, 2574583, 2574503, 2574579, 2574755,      88,    0.52,   0.061,    7.32,   28.23,    0.05
250032554,2013-07-10T12:57:58.906,-1427.84, 6194739,  63.58,  73.74, 2574640, 2574505, 2574484, 2574559, 2574665,      69,   -0.50,   0.062,    8.53,   22.32,    0.10
250032555,2013-07-10T12:58:02.907,-1423.83, 6174383,  63.63,  73.81, 2574718, 2574506, 2574487, 2574562, 2574743,      78,   -0.88,   0.078,    6.75,   23.41,    0.05
250032556,2013-07-10T12:58:06.907,-1419.83, 6154057,  63.68,  73.87, 2574607, 2574452, 2574445, 2574520, 2574631,      70,   -0.55,   0.078,    6.53,   21.62,    0.09
250032557,2013-07-10T12:58:10.907,-1415.83, 6133551,  63.72,  73.94, 2574685, 2574553, 2574497, 2574572, 2574709,      80,    0.32,   0.084,    9.11,   30.18,    0.02
250032558,2013-07-10T12:58:14.907,-1411.83, 6113165,  63.76,  73.99, 2574673, 2574581, 2574520, 2574594, 2574697,      61,    0.87,   0.073,   10.99,   29.53,    0.13
250032559,2013-07-10T12:58:18.907,-1407.83, 6092810,  63.80,  74.05, 2574700, 2574626, 2574515, 2574589, 2574724,      98,    1.01,   0.071,    7.69,   32.13,    0.02
250032560,2013-07-10T12:58:22.907,-1403.83, 6072484,  63.85,  74.12, 2574676, 2574597, 2574522, 2574595, 2574700,      80,    0.76,   0.073,   10.12,   28.63,    0.01
250032561,2013-07-10T12:58:26.908,-1399.83, 6052068,  63.90,  74.18, 2574696, 2574649, 2574517, 2574590, 2574720,     112,    0.83,   0.075,    6.63,   30.35,    0.11
250032562,2013-07-10T12:58:30.908,-1395.83, 6031892,  63.94,  74.24, 2574652, 2574548, 2574514, 2574587, 2574676,      64,    0.04,   0.078,    9.88,   25.09,    0.02
250032563,2013-07-10T12:58:34.908,-1391.83, 6011446,  63.96,  74.30, 2574737, 2574625, 2574522, 2574595, 2574761,      89,    0.39,   0.070,    8.71,   31.59,    0.20
250032564,2013-07-10T12:58:38.908,-1387.83, 5991240,  64.00,  74.37, 2574674, 2574547, 2574512, 2574584, 2574697,      72,   -0.02,   0.073,    8.18,   25.66,    0.06
250032565,2013-07-10T12:58:42.908,-1383.83, 5970944,  64.05,  74.44, 2574710, 2574534, 2574501, 2574573, 2574733,      70,   -0.71,   0.078,    9.48,   26.14,    0.02
250032566,2013-07-10T12:58:46.908,-1379.83, 5950648,  64.09,  74.49, 2574724, 2574560, 2574502, 2574573, 2574748,      69,   -0.22,   0.067,   10.68,   28.66,    0.07
250032567,2013-07-10T12:58:50.909,-1375.83, 5930352,  64.11,  74.56, 2574729, 2574566, 2574506, 2574576, 2574753,      54,   -0.32,   0.068,   13.80,   31.72,    0.15
250032568,2013-07-10T12:58:54.909,-1371.83, 5910116,  64.15,  74.63, 2574688, 2574554, 2574498, 2574568, 2574711,      52,   -0.46,   0.074,   12.53,   30.17,    0.16
250032569,2013-07-10T12:58:58.909,-1367.83, 5889820,  64.17,  74.70, 2574685, 2574551, 2574500, 2574571, 2574708,      65,   -0.49,   0.071,    8.73,   26.75,    0.01
250032570,2013-07-10T12:59:02.909,-1363.83, 5869554,  64.22,  74.76, 2574737, 2574587, 2574526, 2574596, 2574760,      33,    0.83,   0.071,   16.83,   37.70,    0.24
250032571,2013-07-10T12:59:06.909,-1359.83, 5849348,  64.24,  74.82, 2574672, 2574553, 2574507, 2574576, 2574695,      44,    0.26,   0.061,   12.20,   30.46,    0.16
250032572,2013-07-10T12:59:10.909,-1355.83, 5829142,  64.28,  74.89, 2574735, 2574544, 2574495, 2574564, 2574758,      67,   -0.63,   0.069,    8.09,   25.92,    0.02
250032573,2013-07-10T12:59:14.910,-1351.83, 5808846,  64.30,  74.96, 2574699, 2574572, 2574506, 2574575, 2574722,      62,    0.26,   0.063,    8.70,   29.40,    0.07
250032574,2013-07-10T12:59:18.910,-1347.83, 5788700,  64.32,  75.03, 2574730, 2574551, 2574497, 2574566, 2574753,      76,   -0.31,   0.070,    6.37,   26.40,    0.00
250032575,2013-07-10T12:59:22.910,-1343.83, 5768464,  64.37,  75.10, 2574786, 2574571, 2574523, 2574591, 2574808,      73,   -0.33,   0.076,    8.83,   27.82,    0.06
250032576,2013-07-10T12:59:26.910,-1339.83, 5748288,  64.39,  75.17, 2574671, 2574543, 2574493, 2574561, 2574693,      38,   -0.39,   0.071,   16.88,   34.71,    0.24
250032577,2013-07-10T12:59:30.910,-1335.83, 5728142,  64.41,  75.24, 2574769, 2574516, 2574508, 2574575, 2574791,      97,   -0.78,   0.077,    7.19,   21.75,    0.11
250032578,2013-07-10T12:59:34.910,-1331.83, 5707966,  64.42,  75.30, 2574727, 2574521, 2574498, 2574565, 2574749,      86,   -0.69,   0.068,    7.33,   23.61,    0.01
250032579,2013-07-10T12:59:38.911,-1327.83, 5687760,  64.45,  75.36, 2574802, 2574718, 2574595, 2574662, 2574824,     114,   -0.00,   0.053,    2.51,   17.19,    0.61
250032580,2013-07-10T12:59:42.894,-1323.85, 5667644,  64.47,  75.43, 2574868, 2574622, 2574607, 2574673, 2574890,     136,    0.05,   0.055,    5.63,   27.53,    0.68
250032581,2013-07-10T12:59:46.894,-1319.85, 5647348,  64.49,  75.51, 2574849, 2574749, 2574618, 2574684, 2574871,     119,    0.71,   0.067,    8.07,   30.70,    0.10
250032582,2013-07-10T12:59:50.894,-1315.85, 5627172,  64.51,  75.58, 2574870, 2574765, 2574650, 2574716, 2574892,     114,    1.07,   0.075,    9.42,   31.57,    0.07
250032583,2013-07-10T12:59:54.894,-1311.85, 5607146,  64.52,  75.64, 2574812, 2574709, 2574637, 2574702, 2574833,     114,    0.47,   0.070,    7.80,   20.74,    0.23
250032584,2013-07-10T12:59:58.894,-1307.85, 5587000,  64.56,  75.70, 2574801, 2574724, 2574649, 2574714, 2574823,      78,    1.26,   0.062,   10.31,   29.45,    0.10
250032585,2013-07-10T13:00:02.894,-1303.85, 5567093,  64.57,  75.76, 2574877, 2574745, 2574618, 2574682, 2574898,     121,    0.42,   0.067,    7.72,   28.20,    0.27
250032586,2013-07-10T13:00:06.895,-1299.85, 5546768,  64.60,  75.81, 2574853, 2574746, 2574645, 2574709, 2574875,      97,    1.03,   0.072,    8.00,   30.87,    0.02
250032587,2013-07-10T13:00:10.895,-1295.85, 5526771,  64.69,  75.87, 2574740, 2574566, 2574586, 2574650, 2574762,      82,   -0.31,   0.065,    7.14,   19.66,    0.38
250032588,2013-07-10T13:00:14.895,-1291.85, 5506835,  64.80,  75.93, 2574713, 2574569, 2574588, 2574652, 2574734,      72,   -0.08,   0.063,    7.39,   20.47,    0.39
250032589,2013-07-10T13:00:18.895,-1287.85, 5486749,  64.90,  75.99, 2574712, 2574600, 2574580, 2574643, 2574733,      57,   -0.68,   0.066,    9.94,   23.89,    0.01
250032590,2013-07-10T13:00:22.895,-1283.85, 5466693,  65.02,  76.05, 2574691, 2574581, 2574529, 2574592, 2574712,      19,   -1.31,   0.085,   21.76,   37.12,    0.30
250032591,2013-07-10T13:00:26.895,-1279.85, 5446667,  65.15,  76.11, 2574825, 2574598, 2574546, 2574610, 2574845,      69,   -0.34,   0.103,    8.43,   29.11,    0.14
250032592,2013-07-10T13:00:30.896,-1275.85, 5426671,  65.20,  76.18, 2574792, 2574660, 2574552, 2574616, 2574812,      93,   -0.67,   0.114,    6.40,   24.27,    0.13
250032593,2013-07-10T13:00:34.896,-1271.85, 5406645,  65.23,  76.26, 2574731, 2574594, 2574537, 2574599, 2574751,      80,   -0.76,   0.102,    6.84,   21.69,    0.12
250032594,2013-07-10T13:00:38.896,-1267.85, 5386678,  65.26,  76.35, 2574808, 2574597, 2574578, 2574640, 2574828,     115,    0.09,   0.078,    6.30,   30.07,    0.13
250032595,2013-07-10T13:00:42.896,-1263.85, 5366442,  65.30,  76.44, 2574814, 2574579, 2574563, 2574624, 2574835,     122,   -0.03,   0.051,    3.98,   28.72,    0.58
250032596,2013-07-10T13:00:46.896,-1259.85, 5346506,  65.33,  76.53, 2574764, 2574707, 2574633, 2574694, 2574785,      78,    1.62,   0.030,    7.61,   23.41,    0.04
250032597,2013-07-10T13:00:50.896,-1255.85, 5326540,  65.36,  76.62, 2574749, 2574723, 2574662, 2574723, 2574770,      51,    0.72,   0.003,    5.60,   21.17,    0.07
250032598,2013-07-10T13:00:54.897,-1251.84, 5306604,  65.41,  76.72, 2574742, 2574725, 2574675, 2574735, 2574763,      25,   -0.50,   0.027,   11.61,   26.70,    0.20
250032599,2013-07-10T13:00:58.897,-1247.84, 5286638,  65.43,  76.80, 2574817, 2574718, 2574644, 2574703, 2574838,      74,    1.79,   0.042,    6.61,   29.55,    0.11
250032600,2013-07-10T13:01:02.897,-1243.84, 5266731,  65.48,  76.88, 2574770, 2574722, 2574662, 2574721, 2574790,      39,    3.41,   0.043,   10.43,   37.03,    0.25
250032601,2013-07-10T13:01:06.897,-1239.84, 5246795,  65.51,  76.96, 2574779, 2574726, 2574654, 2574713, 2574800,      69,    2.58,   0.050,    7.78,   33.09,    0.18
250032602,2013-07-10T13:01:10.897,-1235.84, 5226889,  65.52,  77.03, 2574764, 2574720, 2574660, 2574719, 2574784,      48,    4.37,   0.056,   11.53,   38.38,    0.27
250032603,2013-07-10T13:01:14.897,-1231.84, 5206983,  65.54,  77.11, 2574753, 2574709, 2574638, 2574697, 2574772,      71,    1.73,   0.068,    7.94,   26.39,    0.12
250032604,2013-07-10T13:01:18.898,-1227.84, 5187107,  65.60,  77.19, 2574825, 2574716, 2574631, 2574689, 2574844,      86,    1.63,   0.072,    6.96,   31.30,    0.13
250032605,2013-07-10T13:01:22.898,-1223.84, 5167230,  65.71,  77.27, 2574846, 2574716, 2574615, 2574673, 2574866,     106,    0.93,   0.059,    3.59,   28.70,    0.08
250032606,2013-07-10T13:01:26.898,-1219.84, 5147354,  65.82,  77.34, 2574842, 2574744, 2574633, 2574691, 2574862,     108,    1.12,   0.039,    4.15,   29.32,    0.07
250032607,2013-07-10T13:01:30.898,-1215.84, 5127568,  65.97,  77.41, 2574739, 2574701, 2574632, 2574690, 2574759,      85,    1.09,   0.026,    4.35,   20.91,    0.23
250032608,2013-07-10T13:01:34.898,-1211.84, 5107751,  66.10,  77.49, 2574828, 2574608, 2574572, 2574629, 2574848,     107,    0.05,   0.028,    2.57,   23.01,    0.63
250032609,2013-07-10T13:01:38.898,-1207.84, 5087995,  66.23,  77.57, 2574593, 2574606, 2574552, 2574609, 2574612,      15,    0.01,   0.043,   21.22,   35.20,    0.26
250032610,2013-07-10T13:01:42.899,-1203.84, 5068209,  66.36,  77.65, 2574614, 2574605, 2574551, 2574608, 2574633,      15,   -0.10,   0.061,   23.07,   35.47,    0.26
250032611,2013-07-10T13:01:46.899,-1199.84, 5048393,  66.48,  77.73, 2574615, 2574591, 2574551, 2574608, 2574634,      15,   -0.10,   0.078,   23.21,   35.31,    0.29
250032612,2013-07-10T13:01:50.899,-1195.84, 5028636,  66.49,  77.82, 2574614, 2574590, 2574552, 2574607, 2574633,      15,   -0.08,   0.062,   23.20,   35.31,    0.29
